Monterey, CA

9:32 PM PDT on July 20, 2017 (GMT -0700)
Monterey Peninsula

Weather History for KMRY - November, 2011

Change the Weather History Date:

Friday, November 11, 2011

  Actual Average Record
Temperature  
Mean Temperature 51 °F 55 °F  
Max Temperature 57 °F 64 °F 72 °F (2001)
Min Temperature 44 °F 47 °F 40 °F (2000)
Degree Days  
Heating Degree Days 14    
Month to date heating degree days 118  
Since 1 July heating degree days 676  
Cooling Degree Days 0    
Month to date cooling degree days 0  
Year to date cooling degree days 33  
Growing Degree Days 1 (Base 50)    
Moisture  
Dew Point 46 °F    
Average Humidity 76    
Maximum Humidity 89    
Minimum Humidity 63    
Precipitation  
Precipitation 0.33 in - 0.33 in (2011)
Month to date precipitation 0.72  
Year to date precipitation 15.79  
Since 1 July precipitation 3.00  
Sea Level Pressure  
Sea Level Pressure 29.83 in    
Wind  
Wind Speed 3 mph (SE)    
Max Wind Speed 14 mph    
Max Gust Speed 24 mph    
Visibility 8 miles    
Events Rain    
T = Trace of Precipitation, MM = Missing Value Source: NWS Daily Summary

Daily Weather History Graph

Daily Weather History Graph

Search for Another Location

Airport or City:

Trip Planner

Search our weather history database for the weather conditions in past years. The results will help you decide how hot, cold, wet, or windy it might be!

Date:

Astronomy

Nov. 11, 2011 Rise Set
Actual Time 6:40 AM PST 5:01 PM PST
Civil Twilight 6:13 AM PST 5:28 PM PST
Nautical Twilight 5:42 AM PST 5:59 PM PST
Astronomical Twilight 5:12 AM PST 6:30 PM PST
Moon 5:37 PM PST (11/11) 7:31 AM PST (11/11)
Length of Visible Light 11h 15m
Length of Day
10h 20m
Full, 99% of the Moon is Illuminated
Nov 11
Full
Nov 18
Last Quarter
Nov 24
New
Dec 2
First Quarter
Dec 10
Full

Hourly Weather History & Observations

Time (PST) Temp. Windchill Dew Point Humidity Pressure Visibility Wind Dir Wind Speed Gust Speed Precip Events Conditions
12:54 AM 48.0 °F - 44.1 °F 86% 29.93 in 10.0 mi ESE 3.5 mph - N/A   Clear
1:54 AM 46.9 °F - 42.1 °F 83% 29.92 in 10.0 mi East 3.5 mph - N/A   Clear
2:54 AM 48.0 °F - 44.1 °F 86% 29.91 in 10.0 mi ENE 4.6 mph - N/A   Clear
3:54 AM 46.0 °F 43.9 °F 41.0 °F 83% 29.88 in 10.0 mi East 4.6 mph - N/A   Clear
4:54 AM 45.0 °F 41.2 °F 39.9 °F 82% 29.86 in 10.0 mi East 6.9 mph - N/A   Clear
5:54 AM 46.0 °F 44.8 °F 39.9 °F 79% 29.85 in 10.0 mi SSE 3.5 mph - N/A   Clear
6:54 AM 45.0 °F 40.6 °F 37.9 °F 76% 29.82 in 10.0 mi East 8.1 mph - N/A   Clear
7:54 AM 51.1 °F - 39.9 °F 66% 29.84 in 10.0 mi Calm Calm - N/A   Overcast
8:54 AM 51.1 °F - 42.1 °F 71% 29.86 in 7.0 mi NE 3.5 mph - 0.01 in Rain Light Rain
9:54 AM 51.1 °F - 45.0 °F 80% 29.87 in 5.0 mi SW 4.6 mph - 0.05 in Rain Light Rain
10:54 AM 52.0 °F - 46.9 °F 83% 29.85 in 7.0 mi ESE 3.5 mph - 0.07 in Rain Light Rain
11:38 AM 51.8 °F - 48.2 °F 88% 29.79 in 2.0 mi Calm Calm - 0.06 in Rain Rain
11:54 AM 52.0 °F - 48.0 °F 86% 29.83 in 5.0 mi Calm Calm - 0.09 in Rain Light Rain
12:54 PM 53.1 °F - 48.0 °F 83% 29.80 in 8.0 mi Calm Calm - 0.00 in Rain Light Rain
1:54 PM 53.1 °F - 50.0 °F 89% 29.80 in 7.0 mi West 3.5 mph - 0.01 in   Overcast
2:54 PM 57.0 °F - 53.1 °F 87% 29.76 in 10.0 mi Calm Calm - 0.01 in   Overcast
3:54 PM 55.9 °F - 52.0 °F 87% 29.79 in 10.0 mi WSW 8.1 mph - N/A   Overcast
4:54 PM 55.9 °F - 51.1 °F 84% 29.79 in 9.0 mi West 4.6 mph - 0.00 in   Overcast
5:32 PM 55.4 °F - 51.8 °F 88% 29.76 in 9.0 mi SSW 3.5 mph - 0.00 in   Overcast
5:54 PM 54.0 °F - 51.1 °F 90% 29.81 in 6.0 mi SW 3.5 mph - 0.01 in Rain Light Rain
6:54 PM 53.1 °F - 50.0 °F 89% 29.83 in 6.0 mi Calm Calm - 0.01 in Rain Light Rain
7:54 PM 52.0 °F - 48.9 °F 89% 29.83 in 6.0 mi Calm Calm - 0.05 in Rain Rain
8:54 PM 53.1 °F - 48.9 °F 86% 29.82 in 10.0 mi Calm Calm - 0.02 in   Overcast
9:54 PM 53.6 °F - 46.4 °F 77% 29.78 in 10.0 mi NNW 6.9 mph - N/A   Overcast
10:54 PM 55.0 °F - 45.0 °F 69% 29.82 in 10.0 mi East 8.1 mph - N/A   Overcast
11:54 PM 52.0 °F - 46.0 °F 80% 29.82 in 10.0 mi SSE 3.5 mph - N/A   Overcast